Location: Flotzheim
(48.8375°N, 10.8136°E)
Time: 04:48:53
(UTC+00:00)

SMAP - Pass Details

Date: 23 January 2021
Orbit: 681 x 683 km, 98.1° (Epoch: 26 February)

Event Time Altitude Azimuth Distance (km) Brightness Sun altitude
Rises 16:47:18 0° 172° (S) 3,033 6.6 -7.9°
Reaches altitude 10° 16:49:33 10° 176° (S) 2,122 5.8 -8.2°
Maximum altitude 16:54:10 65° 258° (WSW) 753 3.6 -8.9°
Drops below altitude 10° 16:58:49 10° 341° (NNW) 2,138 5.6 -9.7°
Sets 17:01:05 0° 344° (NNW) 3,058 6.4 -10.0°
